Voltar ao catálogo

COSMOS 970 DEB

AtivoLEO
NORAD 10887·DEBRIS·🇷🇺 Russia

Lançado Dec 21, 1977 de Baikonur Cosmodrome

Loading…

Próximas Passagens (próximas 24 horas)

TLE

AtualizadoSource: Space-Track

Época: Sep 14, 2026, 22:48 UTC

1 10887U 77121AJ  26257.95023408  .00000260  00000-0  27761-3 0  9999
2 10887  65.7406 241.4903 0166732 298.5184  59.9181 13.83884030450582

Acompanhe COSMOS 970 DEB em tempo real com AllMySat

Download on the App Store